Regional Weather Roundup
Issued by NWS Binghamton, NY

Home | Current Version | Previous Version | Text Only | Print | Product List | Glossary On
Versions: 1 2 3 4 5 6 7 8 9 10 11 12 13 14 15 16 17 18 19 20 21 22 23 24 25 26 27 28 29 30 31 32 33 34 35 36 37 38 39 40 41 42 43 44 45 46 47 48 49
000
ASUS41 KBGM 261010
RWRBGM
RWRBGM
BINGHAMTON REGIONAL WEATHER ROUNDUP
NATIONAL WEATHER SERVICE BINGHAMTON NY
500 AM EST FRI DEC 26 2014

Note: "fair" indicates few or no clouds below 12,000 feet with no
significant weather and/or obstructions to visibility.

* = Station(s) that does not report precipitation, such as rain,
snow, etc, also no thunder or fog.

!NYZ009-015>018-022>025-036-037-044>046-055>057-062-261100
...CENTRAL NEW YORK...

CITY           SKY/WX    TMP DP  RH WIND       PRES   REMARKS
BINGHAMTON     CLOUDY    35  27  72 W6        30.12R WCI  30
CORTLAND       CLOUDY    36  30  80 W5        30.17R WCI  32
DANSVILLE      CLOUDY    38  28  67 N7        30.20R WCI  33
ELMIRA         CLOUDY    37  28  70 SW5       30.18R WCI  33
ITHACA         CLOUDY    37  28  70 W8        30.18R WCI  31
HAMILTON       CLOUDY    37  28  70 W3        30.14R
MONTICELLO     CLOUDY    34  27  75 W6        30.12R WCI  29
NORWICH        CLOUDY    37  27  65 NW3       30.16R
ONEONTA        CLOUDY    34  27  75 W6        30.11R WCI  29
PENN YAN       CLOUDY    38  28  67 SW9       30.18R WCI  31
ROME           CLOUDY    38  29  70 W10       30.16R WCI  31
SIDNEY         CLOUDY    39  30  70 NW3       30.15R
SYRACUSE       CLOUDY    39  30  70 W9        30.17R WCI  33
$$

!PAZ038>040-043-044-047-048-072-261100
...NORTHEAST PENNSYLVANIA...

CITY           SKY/WX    TMP DP  RH WIND       PRES   REMARKS
HAZLETON       CLEAR     32  27  80 W5        30.17R WCI  27
SCRANTON       CLEAR     33  26  75 SW7       30.16R WCI  27
TOWANDA*         N/A     34  27  75 SW5       30.20R WCI  30
$$
&&
KEY
WCI = WIND CHILL INDEX
VSB = VISIBILITY
HX  = HEAT INDEX
$$


USA.gov is the U.S. government's official web portal to all federal, state and local government web resources and services.